FENGYUN 1C DEB, 35217

Orbit data source: Space-Track

FENGYUN 1C DEB, 35217 is space debris in SSO originally from a launch on Mon, 10 May 1999 UTC launched from the Taiyaun Space Center, China (TSC). Fengyun 1C debris stems from the Chinese weather satellite Fengyun-1C, which was intentionally destroyed by a Chinese anti-satellite missile in 2007. This event dramatically increased the amount of space debris, with thousands of trackable fragments posing hazards to satellites and human spaceflight. The Fengyun 1C debris cloud has become a focal point in discussions about space sustainability and the need for international regulations to prevent the creation of new debris.

Loading next visibility...
Identifier
35217, 1999-025DPZ
Orbit
SSO
Country
Flag of CNCN / PRC
Related business
Manufacturer
Unknown
Mission
Spacecraft
Bus & Motor
Unknown
Mass
Unknown
Launch date (UTC)
1999-05-10 (27 years ago)
Launch vehicle
Unknown
Launch site
Taiyaun Space Center, China (TSC)
Object type
Payload
Rocket body
Debris
Shape & HBR
Unknown shape, 0.1 m
Radar Cross Section
Small (<0.1 m²)

Expand to show TLE details & history
Last TLE update: 12 hours ago

TLE from 12 hours ago
0 FENGYUN 1C DEB
1 35217U 99025DPZ 26177.61162010  .00001447  00000-0  15634-2 0  9990
2 35217 101.8786 138.4970 0294747 201.8849 156.9473 13.58310280638786
Epoch: 2026-06-26T14:40Z
TLE epoch observation values (Epoch: 2026-06-26T14:40:43.976Z)
Latitude
-0.00003°
Longitude
3.57614°
Altitude
1,246.777 km
Speed
7.133 km/s
True Right ascension
09h 13m 59s
True Declination
0° 00' 00"
Sunlit
Object was in daylight at epoch
Visualization orbit readout
Latitude
Unknown
Longitude
Unknown
Altitude
Unknown
Speed
Unknown
Apparent Right ascension
Unknown
Apparent Declination
Unknown
Sunlit
N/A
Visualization observer readout
Local Sidereal Time
13:51:57
Azimuth
Unknown
Elevation
Unknown
Doppler factor
Unknown
Orbital elements
Apogee altitude
1,257.876 km
Perigee altitude
820.625 km
Semi-major axis
7,417.388 km
Eccentricity
0.02947
Inclination
101.8786°
RAAN
138.497°
Arg. of periapsis
201.8849°
True anomaly
158.22635°
Mean anomaly
156.9473°
Eccentric anomaly
157.59109°
Mean motion
3.39756 °/min
Orbital period
105.96 mins
BSTAR
0.0015634
Loading maneuver chart data...
Computing Atmospheric mass density...
Loading historical data...
Loading historical data...
Loading historical data...
Loading historical data...
Loading historical data...
Loading historical data...
Loading historical data...

Documentation

Showing up to 5 results
|